This demonstration page uses our WeatherBlox Daily Observations layout. Learn more.

Left ArrowRight Arrow

Hourly Observations for March 29, 2022

Temp ( °F °C ) Dew Point ( °F °C ) Humidity (%) Winds ( mph kmh ) Pressure ( in mb ) Visibility ( mi km ) Precip ( " mm )
12:59 am 00:59 Clear 35 1.7 14 -10 42 42 NNW 15 24 30.20 1023 10 16 0.00 0.00
1:59 am 01:59 Clear 34 1.1 13 -10.6 42 42 NNW 13 20 30.22 1023 10 16 0.00 0.00
2:59 am 02:59 Clear 33 0.6 11 -11.7 40 40 N 16 26 30.22 1024 10 16 0.00 0.00
3:59 am 03:59 Clear 32 0 12 -11.1 43 43 NNW 15 24 30.23 1024 10 16 0.00 0.00
4:59 am 04:59 Clear 32 0 12 -11.1 43 43 NNW 14 22 30.24 1024 10 16 0.00 0.00
5:59 am 05:59 Clear 31 -0.6 11 -11.7 43 43 NNW 16 26 30.26 1025 10 16 0.00 0.00
6:59 am 06:59 Mostly Sunny 31 -0.6 11 -11.7 43 43 N 13 20 30.29 1026 10 16 0.00 0.00
7:59 am 07:59 Sunny 32 0 9 -12.8 38 38 NNW 20 31 30.32 1027 10 16 0.00 0.00
8:59 am 08:59 Mostly Sunny 33 0.6 11 -11.7 40 40 N 13 20 30.33 1027 10 16 0.00 0.00
9:59 am 09:59 Mostly Sunny 34 1.1 13 -10.6 42 42 NNW 10 17 30.34 1027 10 16 0.00 0.00
10:59 am 10:59 Partly Cloudy 37 2.8 13 -10.6 37 37 NW 9 15 30.33 1027 10 16 0.00 0.00
11:59 am 11:59 Partly Cloudy 38 3.3 13 -10.6 36 36 NNW 7 11 30.32 1027 10 16 0.00 0.00
12:59 pm 12:59 Sunny 40 4.4 15 -9.4 36 36 W 14 22 30.30 1026 10 16 0.00 0.00
1:59 pm 13:59 Partly Cloudy 43 6.1 11 -11.7 27 27 WNW 13 20 30.28 1025 10 16 0.00 0.00
2:59 pm 14:59 Sunny 46 7.8 12 -11.1 25 25 WNW 14 22 30.25 1024 10 16 0.00 0.00
3:59 pm 15:59 Sunny 47 8.3 12 -11.1 24 24 WNW 14 22 30.22 1023 10 16 0.00 0.00
4:59 pm 16:59 Mostly Cloudy 48 8.9 12 -11.1 23 23 WNW 9 15 30.22 1023 10 16 0.00 0.00
5:59 pm 17:59 Partly Cloudy 48 8.9 10 -12.2 21 21 NW 12 19 30.21 1023 10 16 0.00 0.00
6:59 pm 18:59 Mostly Sunny 46 7.8 11 -11.7 24 24 NW 6 9 30.22 1023 10 16 0.00 0.00
7:59 pm 19:59 Mostly Clear 45 7.2 13 -10.6 27 27 NW 9 15 30.24 1024 10 16 0.00 0.00
8:59 pm 20:59 Clear 45 7.2 17 -8.3 33 33 N 3 6 30.25 1024 10 16 0.00 0.00
9:59 pm 21:59 Clear 39 3.9 21 -6.1 48 48 Calm 30.27 1025 10 16 0.00 0.00
10:59 pm 22:59 Mostly Clear 38 3.3 21 -6.1 51 51 Calm 30.25 1025 10 16 0.00 0.00
11:59 pm 23:59 Partly Cloudy 39 3.9 22 -5.6 50 50 S 6 9 30.27 1025 10 16 0.00 0.00

Powered by AerisWeather